Tracking 30157 objects as of 13-Feb-2025
HD Live streaming from Space Station
objects crossing your sky now

LASARSAT

Track LASARSAT now!
10-day predictions


NORAD ID: 62391
Int'l Code: 2024-247Q
Perigee: 509.5 km
Apogee: 514.7 km
Inclination: 45.0 °
Period: 94.7 minutes
Semi major axis: 6883 km
RCS: Unknown
Launch date: December 21, 2024
Source: Czech Republic (former Czechoslovakia) (CZCH)
Launch site: AIR FORCE WESTERN TEST RANGE (AFWTR)
Your satellite tracking list
Your tracking list is empty




NASA's NSSDC Master Catalog

Two Line Element Set (TLE):
1 62391U 24247Q   25043.13641739  .00018149  00000-0  83128-3 0  9996
2 62391  44.9912  77.1413 0003738  34.0846 326.0273 15.20285488  8151
Source of the keplerian elements: AFSPC